When you browse on this site, cookies collect data to enhance your experience and personalize the content and advertising you see.
Visit our Privacy Policy to learn more. By continuing to use the site, you agree to this use of cookies and data.
  • Em Portugal
  • Lista de países
  • Para 7 dias
  • Temperatura da água
  • Mapas de satélite
  • Mapa do tempo
  • Widgets de tempo
  • user-avatar
    Iniciar Sessão

    Previsão horária em Kapore

    Hoje, 21 Abril, Domingo

    Tempo Temperatura Precipitação Vento Pressão Humidade
    00:00 +4°C° 0.1 mm 3 m/s 764 mmHg 69%
    01:00 +4°C° 0.1 mm 3 m/s 764 mmHg 71%
    02:00 +3°C° 0 mm 3 m/s 764 mmHg 81%
    03:00 +3°C° 0 mm 3 m/s 764 mmHg 80%
    04:00 +3°C° 0 mm 3 m/s 764 mmHg 80%
    05:00 +3°C° 0 mm 3 m/s 764 mmHg 79%
    06:00 +4°C° 0 mm 4 m/s 764 mmHg 74%
    07:00 +5°C° 0 mm 4 m/s 764 mmHg 69%
    08:00 +6°C° 0 mm 4 m/s 764 mmHg 62%
    09:00 +8°C° 0 mm 4 m/s 764 mmHg 56%
    10:00 +10°C° 0 mm 4 m/s 765 mmHg 50%
    11:00 +12°C° 0 mm 4 m/s 765 mmHg 44%
    12:00 +13°C° 0 mm 4 m/s 765 mmHg 41%
    13:00 +13°C° 0 mm 3 m/s 764 mmHg 39%
    14:00 +14°C° 0 mm 3 m/s 764 mmHg 36%
    15:00 +14°C° 0 mm 3 m/s 764 mmHg 36%
    16:00 +14°C° 0 mm 3 m/s 764 mmHg 37%
    17:00 +14°C° 0 mm 3 m/s 764 mmHg 37%
    18:00 +13°C° 0 mm 2 m/s 764 mmHg 43%
    19:00 +12°C° 0 mm 2 m/s 764 mmHg 50%
    20:00 +9°C° 0 mm 2 m/s 764 mmHg 56%
    21:00 +8°C° 0 mm 2 m/s 765 mmHg 59%
    22:00 +8°C° 0 mm 2 m/s 765 mmHg 62%
    23:00 +7°C° 0 mm 2 m/s 765 mmHg 65%

    Amanhã, 22 Abril, Segunda-feira

    Tempo Temperatura Precipitação Vento Pressão Humidade
    00:00 +7°C° 0 mm 2 m/s 766 mmHg 68%
    01:00 +7°C° 0 mm 1 m/s 766 mmHg 70%
    02:00 +7°C° 0 mm 1 m/s 766 mmHg 72%
    03:00 +7°C° 0 mm 1 m/s 766 mmHg 74%
    04:00 +7°C° 0 mm 1 m/s 766 mmHg 76%
    05:00 +6°C° 0 mm 1 m/s 766 mmHg 78%
    06:00 +8°C° 0 mm 1 m/s 766 mmHg 71%
    07:00 +10°C° 0 mm 1 m/s 766 mmHg 65%
    08:00 +12°C° 0 mm 1 m/s 767 mmHg 58%
    09:00 +14°C° 0 mm 2 m/s 767 mmHg 51%
    10:00 +16°C° 0 mm 2 m/s 767 mmHg 44%
    11:00 +18°C° 0 mm 2 m/s 767 mmHg 36%
    12:00 +18°C° 0 mm 2 m/s 767 mmHg 35%
    13:00 +19°C° 0 mm 2 m/s 767 mmHg 33%
    14:00 +19°C° 0 mm 2 m/s 766 mmHg 32%
    15:00 +19°C° 0 mm 2 m/s 766 mmHg 33%
    16:00 +19°C° 0 mm 2 m/s 766 mmHg 35%
    17:00 +18°C° 0 mm 2 m/s 766 mmHg 36%
    18:00 +17°C° 0 mm 2 m/s 766 mmHg 42%
    19:00 +15°C° 0 mm 2 m/s 767 mmHg 49%
    20:00 +13°C° 0 mm 2 m/s 767 mmHg 55%
    21:00 +12°C° 0 mm 2 m/s 767 mmHg 57%
    22:00 +10°C° 0 mm 2 m/s 767 mmHg 59%
    23:00 +10°C° 0 mm 2 m/s 768 mmHg 60%

    Depois de amanhã, 23 Abril, Terça-feira

    Tempo Temperatura Precipitação Vento Pressão Humidade
    00:00 +9°C° 0 mm 2 m/s 768 mmHg 61%
    01:00 +9°C° 0 mm 2 m/s 768 mmHg 62%
    02:00 +8°C° 0 mm 2 m/s 768 mmHg 63%
    03:00 +8°C° 0 mm 2 m/s 768 mmHg 64%
    04:00 +8°C° 0 mm 1 m/s 769 mmHg 65%
    05:00 +8°C° 0 mm 1 m/s 769 mmHg 66%
    06:00 +10°C° 0 mm 1 m/s 769 mmHg 61%
    07:00 +12°C° 0 mm 1 m/s 769 mmHg 55%
    08:00 +14°C° 0 mm 1 m/s 769 mmHg 49%
    09:00 +15°C° 0 mm 1 m/s 769 mmHg 44%
    10:00 +18°C° 0 mm 1 m/s 769 mmHg 39%
    11:00 +19°C° 0 mm 1 m/s 769 mmHg 33%
    12:00 +20°C° 0 mm 1 m/s 769 mmHg 32%
    13:00 +20°C° 0 mm 1 m/s 769 mmHg 31%
    14:00 +21°C° 0 mm 1 m/s 768 mmHg 30%
    15:00 +21°C° 0 mm 1 m/s 768 mmHg 30%
    16:00 +21°C° 0 mm 1 m/s 768 mmHg 31%
    17:00 +20°C° 0 mm 1 m/s 767 mmHg 31%
    18:00 +18°C° 0 mm 1 m/s 767 mmHg 37%
    19:00 +16°C° 0 mm 1 m/s 768 mmHg 42%
    20:00 +14°C° 0 mm 1 m/s 768 mmHg 47%
    21:00 +13°C° 0 mm 1 m/s 768 mmHg 50%
    22:00 +12°C° 0 mm 1 m/s 768 mmHg 52%
    23:00 +11°C° 0 mm 1 m/s 768 mmHg 55%

    24 Abril, Quarta-feira

    Tempo Temperatura Precipitação Vento Pressão Humidade
    00:00 +11°C° 0 mm 1 m/s 768 mmHg 57%
    01:00 +10°C° 0 mm 1 m/s 768 mmHg 59%
    02:00 +10°C° 0 mm 1 m/s 769 mmHg 60%
    03:00 +10°C° 0 mm 1 m/s 769 mmHg 62%
    04:00 +9°C° 0 mm 1 m/s 769 mmHg 63%
    05:00 +8°C° 0 mm 0 m/s 769 mmHg 64%
    06:00 +11°C° 0 mm 1 m/s 769 mmHg 59%
    07:00 +13°C° 0 mm 1 m/s 769 mmHg 54%
    08:00 +15°C° 0 mm 1 m/s 769 mmHg 49%
    09:00 +16°C° 0 mm 2 m/s 769 mmHg 44%
    10:00 +18°C° 0 mm 2 m/s 768 mmHg 39%
    11:00 +19°C° 0 mm 3 m/s 768 mmHg 34%
    12:00 +20°C° 0 mm 3 m/s 768 mmHg 33%
    13:00 +20°C° 0 mm 3 m/s 767 mmHg 33%
    14:00 +21°C° 0 mm 3 m/s 767 mmHg 32%
    15:00 +20°C° 0 mm 3 m/s 767 mmHg 33%
    16:00 +20°C° 0 mm 3 m/s 766 mmHg 34%
    17:00 +20°C° 0 mm 3 m/s 766 mmHg 35%
    18:00 +18°C° 0 mm 3 m/s 766 mmHg 41%
    19:00 +16°C° 0 mm 2 m/s 766 mmHg 48%
    20:00 +14°C° 0 mm 2 m/s 766 mmHg 54%
    21:00 +14°C° 0 mm 2 m/s 766 mmHg 57%
    22:00 +13°C° 0 mm 2 m/s 766 mmHg 60%
    23:00 +12°C° 0 mm 2 m/s 766 mmHg 63%

    25 Abril, Quinta-feira

    Tempo Temperatura Precipitação Vento Pressão Humidade
    00:00 +10°C° 0 mm 2 m/s 766 mmHg 64%
    01:00 +10°C° 0 mm 2 m/s 766 mmHg 66%
    02:00 +9°C° 0 mm 2 m/s 766 mmHg 68%
    03:00 +9°C° 0 mm 2 m/s 766 mmHg 69%
    04:00 +9°C° 0 mm 3 m/s 766 mmHg 71%
    05:00 +9°C° 0 mm 3 m/s 766 mmHg 72%
    06:00 +10°C° 0 mm 3 m/s 766 mmHg 66%
    07:00 +12°C° 0 mm 4 m/s 765 mmHg 60%
    08:00 +14°C° 0 mm 4 m/s 765 mmHg 55%
    09:00 +16°C° 0 mm 5 m/s 765 mmHg 49%
    10:00 +17°C° 0 mm 5 m/s 765 mmHg 44%
    11:00 +20°C° 0 mm 6 m/s 764 mmHg 38%
    12:00 +20°C° 0 mm 6 m/s 764 mmHg 37%
    13:00 +21°C° 0 mm 6 m/s 763 mmHg 36%
    14:00 +21°C° 0 mm 6 m/s 763 mmHg 36%
    15:00 +21°C° 0 mm 5 m/s 763 mmHg 38%
    16:00 +20°C° 0 mm 5 m/s 762 mmHg 40%
    17:00 +20°C° 0 mm 4 m/s 762 mmHg 42%
    18:00 +18°C° 0 mm 4 m/s 762 mmHg 47%
    19:00 +17°C° 0 mm 3 m/s 761 mmHg 53%
    20:00 +14°C° 0 mm 3 m/s 761 mmHg 58%
    21:00 +14°C° 0 mm 3 m/s 761 mmHg 60%
    22:00 +13°C° 0 mm 3 m/s 761 mmHg 63%
    23:00 +12°C° 0 mm 3 m/s 761 mmHg 65%

    26 Abril, Sexta-feira

    Tempo Temperatura Precipitação Vento Pressão Humidade
    00:00 +12°C° 0 mm 3 m/s 760 mmHg 67%
    01:00 +11°C° 0 mm 3 m/s 760 mmHg 69%
    02:00 +11°C° 0 mm 3 m/s 760 mmHg 71%
    03:00 +11°C° 0 mm 3 m/s 760 mmHg 72%
    04:00 +10°C° 0 mm 3 m/s 759 mmHg 74%
    05:00 +10°C° 0 mm 3 m/s 759 mmHg 76%
    06:00 +11°C° 0 mm 3 m/s 759 mmHg 71%
    07:00 +13°C° 0 mm 3 m/s 759 mmHg 66%
    08:00 +15°C° 0 mm 4 m/s 758 mmHg 61%
    09:00 +17°C° 0 mm 4 m/s 758 mmHg 56%
    10:00 +19°C° 0 mm 4 m/s 757 mmHg 52%
    11:00 +21°C° 0 mm 5 m/s 757 mmHg 47%
    12:00 +21°C° 0 mm 4 m/s 757 mmHg 45%
    13:00 +22°C° 0 mm 4 m/s 756 mmHg 44%
    14:00 +23°C° 0 mm 4 m/s 756 mmHg 42%
    15:00 +23°C° 0 mm 4 m/s 755 mmHg 43%
    16:00 +24°C° 0 mm 3 m/s 755 mmHg 44%
    17:00 +24°C° 0 mm 3 m/s 754 mmHg 45%
    18:00 +21°C° 0 mm 2 m/s 754 mmHg 52%
    19:00 +19°C° 0 mm 2 m/s 754 mmHg 59%
    20:00 +17°C° 0 mm 2 m/s 754 mmHg 66%
    21:00 +16°C° 0 mm 1 m/s 754 mmHg 70%
    22:00 +16°C° 0 mm 1 m/s 754 mmHg 73%
    23:00 +15°C° 0 mm 1 m/s 753 mmHg 77%
    Mostrar mais